STARLINK-32950

Last updated on Wed May 14 2025 00:02:03 GMT+0000 (Coordinated Universal Time)

1 63566U 25075U 25133.58334491 -.01032386 00000+0 -23586-1 0 9995 2 63566 42.9991 165.8257 0001423 275.4535 141.7262 15.44926429 6079

Satellite not in orbit